<?xml version="1.0" encoding="UTF-8" standalone="no" ?>
<gpx xmlns="http://www.topografix.com/GPX/1/1" xmlns:xsi="http://www.w3.org/2001/XMLSchema-instance" xsi:schemaLocation="http://www.topografix.com/GPX/1/1 http://www.topografix.com/GPX/1/1/gpx.xsd" version="1.1" creator="VisuGPX - https://www.visugpx.com">
  <metadata>
    <name>Mp 77 Gambaiseul</name>
    <desc><![CDATA[rando Maurice]]></desc>
  </metadata>
  <trk>
    <name><![CDATA[077 Gambaiseuil]]></name>
    <trkseg>
      <trkpt lat="48.75583" lon="1.73192">
        <ele>132</ele>
        <time>1990-01-01T01:00:00Z</time>
      </trkpt>
      <trkpt lat="48.75573" lon="1.73188">
        <ele>133</ele>
        <time>1990-01-01T01:00:00Z</time>
      </trkpt>
      <trkpt lat="48.75563" lon="1.73211">
        <ele>133</ele>
        <time>1990-01-01T01:00:00Z</time>
      </trkpt>
      <trkpt lat="48.75477" lon="1.73404">
        <ele>137</ele>
      </trkpt>
      <trkpt lat="48.75408" lon="1.73572">
        <ele>137</ele>
        <time>1990-01-01T01:00:00Z</time>
      </trkpt>
      <trkpt lat="48.75366" lon="1.73633">
        <ele>137</ele>
        <time>1990-01-01T01:00:00Z</time>
      </trkpt>
      <trkpt lat="48.75282" lon="1.73663">
        <ele>137</ele>
        <time>1990-01-01T01:00:00Z</time>
      </trkpt>
      <trkpt lat="48.75209" lon="1.73686">
        <ele>136</ele>
        <time>1990-01-01T01:00:00Z</time>
      </trkpt>
      <trkpt lat="48.75241" lon="1.73798">
        <ele>133</ele>
        <time>1990-01-01T01:00:00Z</time>
      </trkpt>
      <trkpt lat="48.75275" lon="1.73835">
        <ele>133</ele>
        <time>1990-01-01T01:00:00Z</time>
      </trkpt>
      <trkpt lat="48.75174" lon="1.73897">
        <ele>139</ele>
        <time>1990-01-01T01:00:00Z</time>
      </trkpt>
      <trkpt lat="48.75113" lon="1.73942">
        <ele>139</ele>
        <time>1990-01-01T01:00:00Z</time>
      </trkpt>
      <trkpt lat="48.75082" lon="1.7402">
        <ele>136</ele>
        <time>1990-01-01T01:00:00Z</time>
      </trkpt>
      <trkpt lat="48.75096" lon="1.74098">
        <ele>136</ele>
        <time>1990-01-01T01:00:00Z</time>
      </trkpt>
      <trkpt lat="48.75038" lon="1.74242">
        <ele>136</ele>
        <time>1990-01-01T01:00:00Z</time>
      </trkpt>
      <trkpt lat="48.74959" lon="1.74528">
        <ele>137</ele>
        <time>1990-01-01T01:00:00Z</time>
      </trkpt>
      <trkpt lat="48.74897" lon="1.7469">
        <ele>139</ele>
        <time>1990-01-01T01:00:00Z</time>
      </trkpt>
      <trkpt lat="48.74855" lon="1.7483">
        <ele>141</ele>
        <time>1990-01-01T01:00:00Z</time>
      </trkpt>
      <trkpt lat="48.74739" lon="1.75102">
        <ele>140</ele>
        <time>1990-01-01T01:00:00Z</time>
      </trkpt>
      <trkpt lat="48.74801" lon="1.75256">
        <ele>141</ele>
        <time>1990-01-01T01:00:00Z</time>
      </trkpt>
      <trkpt lat="48.74831" lon="1.75406">
        <ele>142</ele>
        <time>1990-01-01T01:00:00Z</time>
      </trkpt>
      <trkpt lat="48.74809" lon="1.75539">
        <ele>143</ele>
        <time>1990-01-01T01:00:00Z</time>
      </trkpt>
      <trkpt lat="48.74756" lon="1.75686">
        <ele>142</ele>
        <time>1990-01-01T01:00:00Z</time>
      </trkpt>
      <trkpt lat="48.74776" lon="1.75897">
        <ele>142</ele>
        <time>1990-01-01T01:00:00Z</time>
      </trkpt>
      <trkpt lat="48.74754" lon="1.75992">
        <ele>144</ele>
        <time>1990-01-01T01:00:00Z</time>
      </trkpt>
      <trkpt lat="48.74689" lon="1.76045">
        <ele>143</ele>
        <time>1990-01-01T01:00:00Z</time>
      </trkpt>
      <trkpt lat="48.743" lon="1.76201">
        <ele>147</ele>
        <time>1990-01-01T01:00:00Z</time>
      </trkpt>
      <trkpt lat="48.74253" lon="1.76259">
        <ele>149</ele>
        <time>1990-01-01T01:00:00Z</time>
      </trkpt>
      <trkpt lat="48.74207" lon="1.76439">
        <ele>149</ele>
        <time>1990-01-01T01:00:00Z</time>
      </trkpt>
      <trkpt lat="48.74226" lon="1.76493">
        <ele>147</ele>
        <time>1990-01-01T01:00:00Z</time>
      </trkpt>
      <trkpt lat="48.74239" lon="1.76538">
        <ele>147</ele>
        <time>1990-01-01T01:00:00Z</time>
      </trkpt>
      <trkpt lat="48.74201" lon="1.76759">
        <ele>149</ele>
        <time>1990-01-01T01:00:00Z</time>
      </trkpt>
      <trkpt lat="48.74115" lon="1.7697">
        <ele>149</ele>
      </trkpt>
      <trkpt lat="48.73992" lon="1.77176">
        <ele>153</ele>
        <time>1990-01-01T01:00:00Z</time>
      </trkpt>
      <trkpt lat="48.73882" lon="1.77255">
        <ele>156</ele>
        <time>1990-01-01T01:00:00Z</time>
      </trkpt>
      <trkpt lat="48.7382" lon="1.77378">
        <ele>157</ele>
        <time>1990-01-01T01:00:00Z</time>
      </trkpt>
      <trkpt lat="48.73859" lon="1.77462">
        <ele>155</ele>
        <time>1990-01-01T01:00:00Z</time>
      </trkpt>
      <trkpt lat="48.73891" lon="1.77499">
        <ele>156</ele>
        <time>1990-01-01T01:00:00Z</time>
      </trkpt>
      <trkpt lat="48.73862" lon="1.77605">
        <ele>165</ele>
        <time>1990-01-01T01:00:00Z</time>
      </trkpt>
      <trkpt lat="48.73913" lon="1.77611">
        <ele>164</ele>
        <time>1990-01-01T01:00:00Z</time>
      </trkpt>
      <trkpt lat="48.73952" lon="1.77662">
        <ele>168</ele>
        <time>1990-01-01T01:00:00Z</time>
      </trkpt>
      <trkpt lat="48.74163" lon="1.78729">
        <ele>183</ele>
        <time>1990-01-01T01:00:00Z</time>
      </trkpt>
      <trkpt lat="48.74416" lon="1.79339">
        <ele>182</ele>
        <time>1990-01-01T01:00:00Z</time>
      </trkpt>
      <trkpt lat="48.74435" lon="1.79583">
        <ele>183</ele>
        <time>1990-01-01T01:00:00Z</time>
      </trkpt>
      <trkpt lat="48.7482" lon="1.79925">
        <ele>184</ele>
        <time>1990-01-01T01:00:00Z</time>
      </trkpt>
      <trkpt lat="48.75219" lon="1.80219">
        <ele>179</ele>
        <time>1990-01-01T01:00:00Z</time>
      </trkpt>
      <trkpt lat="48.7512" lon="1.80602">
        <ele>178</ele>
        <time>1990-01-01T01:00:00Z</time>
      </trkpt>
      <trkpt lat="48.74497" lon="1.80677">
        <ele>184</ele>
        <time>1990-01-01T01:00:00Z</time>
      </trkpt>
      <trkpt lat="48.73583" lon="1.80839">
        <ele>183</ele>
        <time>1990-01-01T01:00:00Z</time>
      </trkpt>
      <trkpt lat="48.72668" lon="1.81061">
        <ele>172</ele>
        <time>1990-01-01T01:00:00Z</time>
      </trkpt>
      <trkpt lat="48.72466" lon="1.80701">
        <ele>171</ele>
        <time>1990-01-01T01:00:00Z</time>
      </trkpt>
      <trkpt lat="48.72354" lon="1.80623">
        <ele>174</ele>
        <time>1990-01-01T01:00:00Z</time>
      </trkpt>
      <trkpt lat="48.71829" lon="1.79982">
        <ele>176</ele>
        <time>1990-01-01T01:00:00Z</time>
      </trkpt>
      <trkpt lat="48.71877" lon="1.79895">
        <ele>177</ele>
        <time>1990-01-01T01:00:00Z</time>
      </trkpt>
      <trkpt lat="48.71936" lon="1.79613">
        <ele>176</ele>
        <time>1990-01-01T01:00:00Z</time>
      </trkpt>
      <trkpt lat="48.71961" lon="1.79572">
        <ele>176</ele>
        <time>1990-01-01T01:00:00Z</time>
      </trkpt>
      <trkpt lat="48.71983" lon="1.79442">
        <ele>175</ele>
        <time>1990-01-01T01:00:00Z</time>
      </trkpt>
      <trkpt lat="48.72025" lon="1.79364">
        <ele>176</ele>
        <time>1990-01-01T01:00:00Z</time>
      </trkpt>
      <trkpt lat="48.72182" lon="1.79222">
        <ele>173</ele>
        <time>1990-01-01T01:00:00Z</time>
      </trkpt>
      <trkpt lat="48.72232" lon="1.79169">
        <ele>174</ele>
        <time>1990-01-01T01:00:00Z</time>
      </trkpt>
      <trkpt lat="48.72258" lon="1.79088">
        <ele>173</ele>
        <time>1990-01-01T01:00:00Z</time>
      </trkpt>
      <trkpt lat="48.72299" lon="1.79103">
        <ele>175</ele>
        <time>1990-01-01T01:00:00Z</time>
      </trkpt>
      <trkpt lat="48.7248" lon="1.78547">
        <ele>174</ele>
        <time>1990-01-01T01:00:00Z</time>
      </trkpt>
      <trkpt lat="48.72421" lon="1.78517">
        <ele>170</ele>
        <time>1990-01-01T01:00:00Z</time>
      </trkpt>
      <trkpt lat="48.7238" lon="1.7844">
        <ele>161</ele>
      </trkpt>
      <trkpt lat="48.72395" lon="1.78341">
        <ele>162</ele>
        <time>1990-01-01T01:00:00Z</time>
      </trkpt>
      <trkpt lat="48.72311" lon="1.78104">
        <ele>157</ele>
        <time>1990-01-01T01:00:00Z</time>
      </trkpt>
      <trkpt lat="48.71968" lon="1.7787">
        <ele>171</ele>
        <time>1990-01-01T01:00:00Z</time>
      </trkpt>
      <trkpt lat="48.72068" lon="1.77543">
        <ele>151</ele>
        <time>1990-01-01T01:00:00Z</time>
      </trkpt>
      <trkpt lat="48.72025" lon="1.7754">
        <ele>150</ele>
        <time>1990-01-01T01:00:00Z</time>
      </trkpt>
      <trkpt lat="48.71987" lon="1.77456">
        <ele>150</ele>
        <time>1990-01-01T01:00:00Z</time>
      </trkpt>
      <trkpt lat="48.71977" lon="1.77384">
        <ele>148</ele>
        <time>1990-01-01T01:00:00Z</time>
      </trkpt>
      <trkpt lat="48.72006" lon="1.77292">
        <ele>145</ele>
        <time>1990-01-01T01:00:00Z</time>
      </trkpt>
      <trkpt lat="48.72073" lon="1.77199">
        <ele>142</ele>
        <time>1990-01-01T01:00:00Z</time>
      </trkpt>
      <trkpt lat="48.72122" lon="1.77122">
        <ele>141</ele>
        <time>1990-01-01T01:00:00Z</time>
      </trkpt>
      <trkpt lat="48.72144" lon="1.77065">
        <ele>142</ele>
        <time>1990-01-01T01:00:00Z</time>
      </trkpt>
      <trkpt lat="48.72155" lon="1.76997">
        <ele>142</ele>
        <time>1990-01-01T01:00:00Z</time>
      </trkpt>
      <trkpt lat="48.72165" lon="1.76836">
        <ele>139</ele>
        <time>1990-01-01T01:00:00Z</time>
      </trkpt>
      <trkpt lat="48.72148" lon="1.76772">
        <ele>138</ele>
        <time>1990-01-01T01:00:00Z</time>
      </trkpt>
      <trkpt lat="48.72163" lon="1.767">
        <ele>138</ele>
        <time>1990-01-01T01:00:00Z</time>
      </trkpt>
      <trkpt lat="48.72188" lon="1.7671">
        <ele>138</ele>
      </trkpt>
      <trkpt lat="48.72275" lon="1.76705">
        <ele>137</ele>
        <time>1990-01-01T01:00:00Z</time>
      </trkpt>
      <trkpt lat="48.7234" lon="1.76708">
        <ele>140</ele>
        <time>1990-01-01T01:00:00Z</time>
      </trkpt>
      <trkpt lat="48.72437" lon="1.76652">
        <ele>144</ele>
        <time>1990-01-01T01:00:00Z</time>
      </trkpt>
      <trkpt lat="48.72425" lon="1.76495">
        <ele>142</ele>
        <time>1990-01-01T01:00:00Z</time>
      </trkpt>
      <trkpt lat="48.72429" lon="1.76393">
        <ele>139</ele>
        <time>1990-01-01T01:00:00Z</time>
      </trkpt>
      <trkpt lat="48.72431" lon="1.76333">
        <ele>139</ele>
        <time>1990-01-01T01:00:00Z</time>
      </trkpt>
      <trkpt lat="48.72469" lon="1.76292">
        <ele>139</ele>
        <time>1990-01-01T01:00:00Z</time>
      </trkpt>
      <trkpt lat="48.72496" lon="1.76265">
        <ele>139</ele>
        <time>1990-01-01T01:00:00Z</time>
      </trkpt>
      <trkpt lat="48.72613" lon="1.76295">
        <ele>144</ele>
        <time>1990-01-01T01:00:00Z</time>
      </trkpt>
      <trkpt lat="48.72671" lon="1.76298">
        <ele>143</ele>
        <time>1990-01-01T01:00:00Z</time>
      </trkpt>
      <trkpt lat="48.72738" lon="1.76272">
        <ele>147</ele>
        <time>1990-01-01T01:00:00Z</time>
      </trkpt>
      <trkpt lat="48.72803" lon="1.7619">
        <ele>151</ele>
        <time>1990-01-01T01:00:00Z</time>
      </trkpt>
      <trkpt lat="48.72823" lon="1.76149">
        <ele>153</ele>
      </trkpt>
      <trkpt lat="48.73027" lon="1.75952">
        <ele>173</ele>
        <time>1990-01-01T01:00:00Z</time>
      </trkpt>
      <trkpt lat="48.73061" lon="1.75493">
        <ele>172</ele>
        <time>1990-01-01T01:00:00Z</time>
      </trkpt>
      <trkpt lat="48.73064" lon="1.75216">
        <ele>161</ele>
        <time>1990-01-01T01:00:00Z</time>
      </trkpt>
      <trkpt lat="48.73063" lon="1.74874">
        <ele>144</ele>
        <time>1990-01-01T01:00:00Z</time>
      </trkpt>
      <trkpt lat="48.73039" lon="1.74733">
        <ele>142</ele>
        <time>1990-01-01T01:00:00Z</time>
      </trkpt>
      <trkpt lat="48.73034" lon="1.74666">
        <ele>142</ele>
        <time>1990-01-01T01:00:00Z</time>
      </trkpt>
      <trkpt lat="48.72962" lon="1.74571">
        <ele>140</ele>
        <time>1990-01-01T01:00:00Z</time>
      </trkpt>
      <trkpt lat="48.7289" lon="1.74543">
        <ele>136</ele>
        <time>1990-01-01T01:00:00Z</time>
      </trkpt>
      <trkpt lat="48.73035" lon="1.74465">
        <ele>136</ele>
        <time>1990-01-01T01:00:00Z</time>
      </trkpt>
      <trkpt lat="48.73275" lon="1.74327">
        <ele>140</ele>
        <time>1990-01-01T01:00:00Z</time>
      </trkpt>
      <trkpt lat="48.73407" lon="1.73958">
        <ele>138</ele>
        <time>1990-01-01T01:00:00Z</time>
      </trkpt>
      <trkpt lat="48.73296" lon="1.72747">
        <ele>128</ele>
        <time>1990-01-01T01:00:00Z</time>
      </trkpt>
      <trkpt lat="48.74261" lon="1.72117">
        <ele>140</ele>
        <time>1990-01-01T01:00:00Z</time>
      </trkpt>
      <trkpt lat="48.74408" lon="1.72306">
        <ele>149</ele>
        <time>1990-01-01T01:00:00Z</time>
      </trkpt>
      <trkpt lat="48.74427" lon="1.72434">
        <ele>159</ele>
        <time>1990-01-01T01:00:00Z</time>
      </trkpt>
      <trkpt lat="48.74472" lon="1.72505">
        <ele>163</ele>
      </trkpt>
      <trkpt lat="48.74657" lon="1.72625">
        <ele>168</ele>
        <time>1990-01-01T01:00:00Z</time>
      </trkpt>
      <trkpt lat="48.74705" lon="1.72662">
        <ele>171</ele>
      </trkpt>
      <trkpt lat="48.74868" lon="1.72702">
        <ele>175</ele>
        <time>1990-01-01T01:00:00Z</time>
      </trkpt>
      <trkpt lat="48.74975" lon="1.7272">
        <ele>176</ele>
      </trkpt>
      <trkpt lat="48.75048" lon="1.7277">
        <ele>173</ele>
        <time>1990-01-01T01:00:00Z</time>
      </trkpt>
      <trkpt lat="48.75202" lon="1.72925">
        <ele>164</ele>
        <time>1990-01-01T01:00:00Z</time>
      </trkpt>
      <trkpt lat="48.75249" lon="1.73128">
        <ele>157</ele>
        <time>1990-01-01T01:00:00Z</time>
      </trkpt>
      <trkpt lat="48.75202" lon="1.73187">
        <ele>157</ele>
        <time>1990-01-01T01:00:00Z</time>
      </trkpt>
      <trkpt lat="48.75267" lon="1.73186">
        <ele>154</ele>
        <time>1990-01-01T01:00:00Z</time>
      </trkpt>
      <trkpt lat="48.75458" lon="1.73201">
        <ele>139</ele>
      </trkpt>
      <trkpt lat="48.75561" lon="1.73203">
        <ele>134</ele>
        <time>1990-01-01T01:00:00Z</time>
      </trkpt>
    </trkseg>
  </trk>
</gpx>